Regional Weather Roundup
Issued by NWS

Home | Current Version | Previous Version | Text Only | Print | Product List | Glossary On
Versions: 1 2 3 4 5 6 7 8 9 10 11 12 13 14 15 16 17 18 19 20 21 22 23 24 25 26 27 28 29 30 31 32 33 34 35 36 37 38 39 40 41 42 43 44 45 46 47 48 49 50
000
ASUS43 KLSX 232310
RWRMO

WEATHER SUMMARY FOR MISSOURI
NATIONAL WEATHER SERVICE SPRINGFIELD MO
600 PM CDT SAT JUL 23 2016

NOTE: "FAIR" INDICATES FEW OR NO CLOUDS BELOW 12,000 FEET WITH NO
       SIGNIFICANT WEATHER AND/OR OBSTRUCTIONS TO VISIBILITY.
       CURRENT SKY AND/OR WEATHER CONDITIONS ARE NOT AVAILABLE FOR
       CHILLICOTHE AND FARMINGTON.

MOZ001>031-035>038-043-044-053-054-240000-
...NORTHERN AND WESTERN MISSOURI...

CITY           SKY/WX    TMP DP  RH WIND       PRES   REMARKS
KANSAS CTY INT CLOUDY    87  76  69 S7        29.87F HX  97
KANSAS C DTWN  PTSUNNY   94  72  48 SW9       29.85F HX 102
LEE`S SUMMIT   SUNNY     93  75  55 SW7       29.89S HX 104
ST JOSEPH      CLOUDY    89  76  65 S15       29.83F HX 100
CHILLICOTHE      N/A     93  76  57 S7        29.87F HX 105
KIRKSVILLE     CLOUDY    91  76  61 S8        29.90F HX 103

$$
MOZ066>068-077>081-088>096-101>105-240000-
...SOUTHWEST MISSOURI...

CITY           SKY/WX    TMP DP  RH WIND       PRES   REMARKS
SPRINGFIELD    SUNNY     97  66  36 VRB7      29.91F HX 100
JOPLIN         MOSUNNY   94  74  52 VRB6      29.89F HX 104
BRANSON        MOSUNNY   95  72  46 CALM      29.93F HX 103

$$
MOZ032>034-039>042-045>050-055>058-069>072-240000-
...CENTRAL MISSOURI...

CITY           SKY/WX    TMP DP  RH WIND       PRES   REMARKS
COLUMBIA       SUNNY     94  76  55 S6        29.89F HX 106
JEFFERSON CITY SUNNY     95  73  48 S7        29.87F HX 104
ROLLA          SUNNY     95  73  48 CALM      29.90F HX 104
SEDALIA        SUNNY     95  75  52 S8        29.90F HX 107
WHITEMAN AFB   SUNNY     94  76  55 S12       29.87F HX 106
OSAGE BEACH    SUNNY     95  76  53 SE5       29.90F HX 108

$$
MOZ051-052-059>065-240000-
...EAST CENTRAL MISSOURI...

CITY           SKY/WX    TMP DP  RH WIND       PRES   REMARKS
ST LOUIS INTL  MOSUNNY   94  73  50 SE8       29.90F HX 103
SPIRIT OF STL  SUNNY     93  75  55 S6        29.88F HX 104
ST CHARLES     SUNNY     91  78  65 E8        29.89S HX 106

$$
MOZ072>076-082>087-097>100-106>115-240000-
...SOUTH CENTRAL AND SOUTHEAST MISSOURI...

CITY           SKY/WX    TMP DP  RH WIND       PRES   REMARKS
CAPE GIRARDEAU MOSUNNY   90  75  61 E7        29.89F HX 100
FARMINGTON     SUNNY     91  76  61 E8        29.93F HX 103
POPLAR BLUFF   SUNNY     91  76  61 E3        29.88F HX 103
WEST PLAINS    CLOUDY    92  72  51 SE6       29.95F HX  99

$$



USA.gov is the U.S. government's official web portal to all federal, state and local government web resources and services.